Location: Brest
(52.1000°N, 23.7000°E)
Time: 18:50:46
(UTC+03:00)

GENESIS II - Visible Passes

Search period start: 18 September 2018 00:00
Search period end: 28 September 2018 00:00
Orbit: 497 x 535 km, 64.5° (Epoch: 17 September)

Date Brightness Start Highest point End Pass type
(mag) Time Alt. Az. Time Alt. Az. Time Alt. Az.
18 Sep 7.2 02:18:48 15° NNE 02:18:48 15° NNE 02:20:35 10° NE visible
18 Sep 6.0 03:53:54 14° NNW 03:56:56 33° NNE 04:00:37 10° E visible
18 Sep 4.4 05:30:54 10° NW 05:34:48 49° SW 05:38:41 10° SSE visible
18 Sep 4.6 21:03:15 10° SSW 21:06:52 38° ESE 21:10:05 13° ENE visible
18 Sep 5.6 22:40:55 10° WSW 22:44:36 38° NW 22:45:11 35° NNW visible
19 Sep 5.9 03:41:02 33° NNE 03:41:14 33° NNE 03:44:55 10° E visible
19 Sep 4.4 05:16:14 17° WNW 05:19:05 48° SW 05:22:57 10° SSE visible
19 Sep 4.6 20:47:31 10° SSW 20:51:10 39° ESE 20:54:53 10° NE visible
19 Sep 5.7 22:25:13 10° WSW 22:28:53 37° NW 22:31:10 20° NNE visible
20 Sep 7.3 00:05:07 10° NW 00:06:12 14° NW 00:06:12 14° NW visible
20 Sep 7.1 03:29:01 11° E 03:29:01 11° E 03:29:14 10° E visible
20 Sep 4.8 05:04:14 40° SSW 05:04:14 40° SSW 05:07:14 10° SSE visible
20 Sep 4.6 20:31:48 10° SSW 20:35:27 40° SE 20:39:11 10° NE visible
20 Sep 5.7 22:09:31 10° WSW 22:13:12 37° NW 22:16:27 13° NNE visible
20 Sep 7.2 23:49:26 10° NW 23:51:27 15° NNW 23:51:27 15° NNW visible
21 Sep 4.6 20:16:04 10° SSW 20:19:45 41° SE 20:23:29 10° NE visible
21 Sep 5.7 21:53:50 10° WSW 21:57:30 36° NW 22:01:13 10° NNE visible
21 Sep 7.1 23:33:45 10° NW 23:36:14 16° NNW 23:36:23 16° N visible
22 Sep 4.6 20:00:20 10° SSW 20:04:02 42° SE 20:07:47 10° NE visible
22 Sep 5.8 21:38:08 10° WSW 21:41:48 36° NW 21:45:30 10° NNE visible
22 Sep 7.0 23:18:04 10° NW 23:20:32 16° NNW 23:21:09 15° N visible
23 Sep 5.8 21:22:27 10° WSW 21:26:05 35° NW 21:29:47 10° NNE visible
23 Sep 7.0 23:02:23 10° NW 23:04:50 16° NNW 23:05:49 14° N visible
24 Sep 5.8 21:06:45 10° WSW 21:10:23 35° NW 21:14:05 10° NNE visible
24 Sep 7.0 22:46:42 10° NW 22:49:09 15° NNW 22:50:27 14° N visible
25 Sep 5.8 20:51:03 10° W 20:54:41 34° NW 20:58:22 10° NNE visible
25 Sep 7.0 22:31:00 10° NW 22:33:27 15° N 22:35:03 13° NNE visible
26 Sep 5.9 20:35:22 10° W 20:38:58 34° NW 20:42:39 10° NNE visible
26 Sep 7.0 22:15:19 10° NW 22:17:45 15° N 22:19:38 12° NNE visible
26 Sep 7.6 23:54:22 10° NNW 23:54:36 11° NNW 23:54:36 11° NNW visible
27 Sep 5.9 20:19:39 10° W 20:23:15 33° NW 20:26:55 10° NNE visible
27 Sep 7.0 21:59:38 10° NW 22:02:03 15° N 22:04:11 11° NNE visible
27 Sep 7.5 23:38:39 10° NNW 23:39:10 12° NNW 23:39:10 12° NNW visible
